Погода в Малом Поломе

Россия / Кировская область     57°41′03″N   51°16′28″E
темп.,
°C
ветер,
м/с
пор.,
м/с
влажн.,
%
обл.,
%
осадки,
мм/ч
давл.,
гПа
погр.,
м
22 апреля, чт
чт2200:00+2ююв81697100 2.6 1022812
03:00+2ююв81497100 3.2 1022756
06:00+2ю71397100 0.2 1022678
09:00+3ю71394100 0.3 1023616
12:00+5ю61088100 0.0 1023655
15:00+7ююв6983100 0.1 1023792
18:00+6ююв61190100 0.0 1023657
21:00+6ююв5108795 0.0 1023363
23 апреля, пт
пт2300:00+5ю51291100 0.1 1023475
03:00+4ю489575 0.2 1024270
06:00+4ю469456 0.0 1025226
09:00+8ю447855 0.0 1026622
12:00+11ююз4560100 0.1 10251436
15:00+10вюв3468100 0.1 1025121
18:00+10юв367597 0.1 1025175
21:00+7юв4108489 0.1 1025216
24 апреля, сб
сб2400:00+6юв498484 0.0 1023211
03:00+4вюв41093100 0.0 1022215
06:00+5в51287100 0.0 1021445
09:00+8вюв6974100 0.0 1019709
12:00+8вюв6878100 0.1 10171151
15:00+6в5891100 0.8 1015952
18:00+6вюв5893100 0.4 1014839
21:00+6вюв5995100 1.3 1012899
25 апреля, вс
вс2500:00+5вюв5994100 0.2 1009958
03:00+5юв61096100 1.2 1007872
06:00+5юв61192100 0.3 1005790
09:00+4юв6997100 4.2 1004866
12:00+3юз61096100 2.1 1005881
15:00+6юз81183100 2.3 10081091
18:00+6зюз48692 0.2 1009227
21:00+2ююз4885100 0.3 1011131
26 апреля, пн
пн2600:00+2ююз411895 0.4 1012242
03:00+1ююз511926 0.4 1013284
06:00+2юз612855 0.0 1014499
09:00+6юз8116422 0.1 10141353
12:00+8юз81147100 0.4 10142403
15:00+9зюз7124191 0.4 10132499
18:00+7юз5106348 0.1 1013455
21:00+5ююз4128598 0.4 1013393